Measurements were made at the meteorological tower in Jülich (50.90 N / 6.40 E) at an altitude of 20 m,
Responsible PI: Dr. Marc von Hobe; Forschungszentrum Jülich GmbH; IEK-7; email: m.von.hobe@fz-juelich.de,
NaN or negative numbers are fill values (i.e. no valid measurements were made at that time),
Uncertainties are given as the 1-sigma standard deviation over each 10 minute intervals. In each interval ~600 individual measurements are carried out so that the standard error of the mean is approximately sigma/sqrt(600).,
time_utc,CO2_ppm,stdev_CO2_ppm,CO_ppb,stdev_CO_ppb,H2O_ppm,stdev_H2O_ppm
"2014-03-01 00:05:00 000",396.415,0.613242,143.779,2.23848,6736.67,51.0634
"2014-03-01 00:15:00 000",397.547,0.674058,143.550,2.28923,6601.20,58.9150
"2014-03-01 00:25:00 000",397.145,0.583905,142.031,2.27981,6495.48,114.973
"2014-03-01 00:35:00 000",398.017,1.35137,141.870,2.24950,6275.66,58.5918
"2014-03-01 00:45:00 000",399.388,0.833033,142.393,2.36492,6297.27,62.7537
"2014-03-01 00:55:00 000",399.206,0.645937,146.548,3.13935,6481.54,77.2854
"2014-03-01 01:05:00 000",400.020,0.624561,148.543,2.08411,6438.16,100.406
"2014-03-01 01:15:00 000",400.457,0.611663,146.919,2.19740,6125.04,87.6135
"2014-03-01 01:25:00 000",400.632,1.09806,149.981,3.76289,6039.07,45.7800
"2014-03-01 01:35:00 000",402.877,0.621539,158.744,2.24802,5984.84,54.1144
"2014-03-01 01:45:00 000",402.904,0.851511,158.015,2.16212,5890.91,50.9503
"2014-03-01 01:55:00 000",402.075,0.621685,158.074,2.13531,5589.73,133.152
"2014-03-01 02:05:00 000",403.528,0.852525,157.265,2.37512,5630.75,199.320
"2014-03-01 02:15:00 000",404.473,0.746641,156.581,2.05926,5843.19,53.7199
"2014-03-01 02:25:00 000",402.619,1.06445,157.998,3.15790,5876.31,53.2810
"2014-03-01 02:35:00 000",403.021,0.763298,162.203,2.49805,5954.40,45.7677
"2014-03-01 02:45:00 000",402.611,0.768402,156.627,2.80352,5937.11,47.0623
"2014-03-01 02:55:00 000",402.081,0.797709,152.006,2.39210,6019.13,58.2566
"2014-03-01 03:05:00 000",402.508,1.50779,150.739,2.24621,6058.83,46.2220
"2014-03-01 03:15:00 000",403.700,0.551775,154.571,3.36079,6092.46,47.4557
"2014-03-01 03:25:00 000",404.279,0.720061,162.924,3.05843,6247.86,65.0004
"2014-03-01 03:35:00 000",405.230,0.770557,171.046,3.26676,6286.47,49.1193
"2014-03-01 03:45:00 000",405.665,0.524014,173.571,3.11147,6306.23,45.0734
"2014-03-01 03:55:00 000",405.666,0.544518,181.895,4.99003,6323.55,46.8091
"2014-03-01 04:05:00 000",406.149,0.589758,187.533,3.05603,6301.03,57.7957
"2014-03-01 04:15:00 000",407.080,0.680433,175.662,3.63993,6172.53,51.3077
"2014-03-01 04:25:00 000",408.236,0.593377,173.187,2.95789,6097.62,52.4252
"2014-03-01 04:35:00 000",408.923,0.691056,174.672,2.71699,6049.78,50.9416
"2014-03-01 04:45:00 000",409.999,0.614737,172.825,2.22346,6028.91,59.4677
"2014-03-01 04:55:00 000",408.811,1.59399,174.367,4.38707,6063.17,60.0002
"2014-03-01 05:05:00 000",406.385,0.624439,167.348,2.22232,6125.51,48.7425
"2014-03-01 05:15:00 000",405.971,0.607005,165.036,2.39390,6237.35,76.8135
"2014-03-01 05:25:00 000",405.531,0.600174,164.781,2.09602,6450.54,72.6394
"2014-03-01 05:35:00 000",405.223,0.875176,163.234,2.29307,6504.42,64.4027
"2014-03-01 05:45:00 000",404.777,0.999198,164.173,2.06879,6394.64,52.0139
"2014-03-01 05:55:00 000",403.917,1.22579,162.873,2.59379,6395.57,63.0648
"2014-03-01 06:05:00 000",402.773,0.785000,158.670,2.23132,6481.90,94.8965
"2014-03-01 06:15:00 000",402.172,0.676967,156.989,2.44942,6741.38,58.5139
"2014-03-01 06:25:00 000",402.992,0.778178,157.861,2.33968,6863.42,51.2268
"2014-03-01 06:35:00 000",404.252,0.600590,157.098,2.13155,6914.54,49.6544
"2014-03-01 06:45:00 000",404.051,0.695386,156.221,2.05201,6949.70,49.8400
"2014-03-01 06:55:00 000",403.752,0.615015,157.102,2.16527,6971.93,54.0601
"2014-03-01 07:05:00 000",402.685,0.572803,157.186,2.53245,7053.55,46.6592
"2014-03-01 07:15:00 000",403.054,0.588584,162.227,2.98937,7029.47,59.0929
"2014-03-01 07:25:00 000",403.330,0.517219,167.383,2.30872,6988.80,53.5831
"2014-03-01 07:35:00 000",403.457,0.511351,170.251,2.89895,7021.90,51.9256
"2014-03-01 07:45:00 000",403.964,0.537117,176.001,3.32606,7091.18,73.7838
"2014-03-01 07:55:00 000",404.752,0.578514,181.727,2.19183,7181.12,59.6619
"2014-03-01 08:05:00 000",405.320,0.520344,181.938,2.03227,7188.75,88.7432
"2014-03-01 08:15:00 000",406.459,0.609987,181.123,2.04791,6710.67,327.491
"2014-03-01 08:25:00 000",406.167,0.536796,178.722,2.32967,6479.17,116.130
"2014-03-01 08:35:00 000",405.488,0.630562,179.888,2.80456,6513.16,137.602
"2014-03-01 08:45:00 000",405.184,0.579174,183.430,2.14011,6863.84,134.981
"2014-03-01 08:55:00 000",402.019,1.45414,174.072,5.94217,6983.28,180.643
"2014-03-01 09:05:00 000",399.877,0.696407,160.153,2.87184,6618.74,66.4037
"2014-03-01 09:15:00 000",398.849,0.710302,155.677,3.60889,6590.76,95.7170
"2014-03-01 09:25:00 000",397.857,0.761776,153.147,3.12855,6447.19,93.2658
"2014-03-01 09:35:00 000",398.591,0.748121,156.182,2.69570,6525.15,83.2959
"2014-03-01 09:45:00 000",398.866,0.654508,158.754,2.43213,6629.89,72.9903
"2014-03-01 09:55:00 000",399.464,0.705317,161.782,2.54822,6599.09,99.1116
"2014-03-01 10:05:00 000",399.912,0.585401,166.348,2.46196,6726.31,56.6574
"2014-03-01 10:15:00 000",399.868,0.563671,165.849,2.28363,6829.23,54.9340
"2014-03-01 10:25:00 000",399.004,0.575679,163.838,2.15815,6861.87,52.4650
"2014-03-01 10:35:00 000",398.029,0.714007,162.730,2.13467,6889.08,51.2776
"2014-03-01 10:45:00 000",397.651,0.534393,164.919,2.27115,6911.49,50.6796
"2014-03-01 10:55:00 000",396.499,0.562291,165.720,2.41035,6928.83,53.2066
"2014-03-01 11:05:00 000",396.277,0.561566,167.926,2.27586,6931.74,55.6496
"2014-03-01 11:15:00 000",396.785,0.559391,171.087,2.38964,7008.24,60.0263
"2014-03-01 11:25:00 000",396.773,0.562668,172.781,2.24492,7060.49,52.2521
"2014-03-01 11:35:00 000",396.870,0.591471,173.323,2.21139,7077.53,71.3328
"2014-03-01 11:45:00 000",396.851,0.537370,174.747,2.23226,7068.59,50.1941
"2014-03-01 11:55:00 000",396.256,0.564598,177.871,2.27294,7047.85,60.0051
"2014-03-01 12:05:00 000",395.661,0.778805,170.987,4.75820,6805.90,119.967
"2014-03-01 12:15:00 000",395.124,0.580525,160.621,2.28955,6220.73,96.4650
"2014-03-01 12:25:00 000",395.050,0.622292,158.349,2.06533,6142.32,68.2485
"2014-03-01 12:35:00 000",395.136,0.619161,158.383,1.97727,6182.19,91.0381
"2014-03-01 12:45:00 000",394.911,0.581710,158.808,3.52835,6115.78,63.9459
"2014-03-01 12:55:00 000",394.721,0.568588,158.432,2.35111,6084.45,58.9981
"2014-03-01 13:05:00 000",394.715,0.577560,160.288,2.12411,6104.36,55.8561
"2014-03-01 13:15:00 000",394.509,0.565970,158.210,2.19920,5957.63,80.3863
"2014-03-01 13:25:00 000",394.721,0.592297,160.349,3.01528,5993.45,81.3555
"2014-03-01 13:35:00 000",394.580,0.608228,167.889,2.33460,6172.62,54.9343
"2014-03-01 13:45:00 000",394.669,0.555190,169.152,2.32235,6098.63,64.5405
"2014-03-01 13:55:00 000",395.016,0.548612,167.781,2.34572,6151.71,81.1948
"2014-03-01 14:05:00 000",395.131,0.537393,168.585,2.52563,6245.86,52.4895
"2014-03-01 14:15:00 000",395.018,0.548778,170.176,3.44180,6258.01,94.1891
"2014-03-01 14:25:00 000",394.758,0.543049,160.058,2.78360,6477.76,51.2614
"2014-03-01 14:35:00 000",394.809,0.513203,155.439,2.18068,6386.97,96.9354
"2014-03-01 14:45:00 000",394.710,0.528980,158.736,3.50128,6283.16,72.4617
"2014-03-01 14:55:00 000",394.645,0.517884,159.789,6.20011,6460.02,90.0785
"2014-03-01 15:05:00 000",394.516,0.510078,151.166,4.85465,6475.62,231.632
"2014-03-01 15:15:00 000",394.377,0.523501,150.118,2.80255,7244.44,178.569
"2014-03-01 15:25:00 000",393.964,0.667699,149.717,2.56477,7727.77,86.5121
"2014-03-01 15:35:00 000",393.456,0.559525,148.376,2.96027,7950.42,66.9114
"2014-03-01 15:45:00 000",393.137,0.566690,154.638,3.11735,8208.07,139.797
"2014-03-01 15:55:00 000",393.745,0.603036,160.389,2.86772,8400.26,138.864
"2014-03-01 16:05:00 000",394.637,0.492524,161.242,2.06726,7624.49,149.055
"2014-03-01 16:15:00 000",395.214,0.578574,162.734,2.09895,7041.42,103.176
"2014-03-01 16:25:00 000",395.696,0.524454,162.808,2.03100,7035.81,86.8501
"2014-03-01 16:35:00 000",395.644,0.562318,166.852,2.91356,7078.12,45.7376
"2014-03-01 16:45:00 000",395.446,0.533370,170.136,2.59842,7126.29,51.1284
"2014-03-01 16:55:00 000",395.489,0.551061,173.714,2.45399,7123.85,57.1469
"2014-03-01 17:05:00 000",395.896,0.532062,173.058,2.31774,7004.87,61.2758
"2014-03-01 17:15:00 000",396.177,0.579889,170.662,2.67238,6849.82,52.3320
"2014-03-01 17:25:00 000",397.152,0.568516,168.879,2.38011,6812.57,49.1307
"2014-03-01 17:35:00 000",397.933,0.616674,172.856,2.68260,6838.35,46.8325
"2014-03-01 17:45:00 000",398.644,0.568529,178.303,3.13956,6799.28,48.0565
"2014-03-01 17:55:00 000",399.335,0.560425,183.019,2.44389,6801.53,48.6077
"2014-03-01 18:05:00 000",399.141,0.631367,185.223,2.42736,6815.33,61.1849
"2014-03-01 18:15:00 000",399.439,0.895141,183.033,2.28765,6749.79,55.7086
"2014-03-01 18:25:00 000",398.777,0.665616,181.941,2.30500,6724.08,56.5193
"2014-03-01 18:35:00 000",399.173,0.572551,183.660,2.42282,6680.03,53.7218
"2014-03-01 18:45:00 000",399.666,0.614407,185.055,2.20901,6735.04,44.9113
"2014-03-01 18:55:00 000",400.039,0.670629,184.965,2.28033,6793.28,64.1867
"2014-03-01 19:05:00 000",399.605,0.595349,180.705,2.50654,6704.37,83.7260
"2014-03-01 19:15:00 000",399.776,0.574612,180.119,2.12120,6673.02,50.8522
"2014-03-01 19:25:00 000",400.039,0.654750,179.300,2.27610,6686.45,52.6042
"2014-03-01 19:35:00 000",400.317,0.628756,181.826,2.62092,6709.36,49.5876
"2014-03-01 19:45:00 000",400.273,0.679891,179.644,2.13350,6736.83,45.0198
"2014-03-01 19:55:00 000",400.944,0.670701,179.011,2.15795,6830.97,47.4557
"2014-03-01 20:05:00 000",400.314,0.610254,181.278,2.24771,6895.15,52.3025
"2014-03-01 20:15:00 000",400.696,0.642347,182.831,2.23052,6863.25,49.1034
"2014-03-01 20:25:00 000",401.595,0.583595,183.535,2.18082,6922.85,44.9312
"2014-03-01 20:35:00 000",403.429,1.38446,185.343,2.35938,6954.65,47.3099
"2014-03-01 20:45:00 000",403.674,1.06744,186.371,2.40889,6950.04,68.4381
"2014-03-01 20:55:00 000",403.515,0.727224,190.276,3.26548,6943.67,77.1577
"2014-03-01 21:05:00 000",404.748,0.836518,199.368,6.37830,7041.37,53.1324
"2014-03-01 21:15:00 000",406.284,0.927335,209.974,2.62020,6978.87,66.9830
"2014-03-01 21:25:00 000",406.284,0.611116,209.835,2.31905,6843.64,66.5522
"2014-03-01 21:35:00 000",405.648,0.981987,205.612,2.45127,6952.52,50.2481
"2014-03-01 21:45:00 000",405.034,0.550277,205.051,2.30081,7133.62,79.3622
"2014-03-01 21:55:00 000",405.354,0.500607,206.997,2.06206,7330.72,69.0355
"2014-03-01 22:05:00 000",405.359,0.565143,207.059,2.27900,7302.48,47.2691
"2014-03-01 22:15:00 000",404.935,0.527399,206.019,2.07307,7297.74,49.4311
"2014-03-01 22:25:00 000",404.557,0.523391,207.103,2.37724,7251.81,42.4206
"2014-03-01 22:35:00 000",404.523,0.547881,209.245,2.10337,7244.86,52.8902
"2014-03-01 22:45:00 000",404.396,0.573959,210.086,2.18868,7325.76,72.3195
"2014-03-01 22:55:00 000",404.091,0.509976,210.546,2.12385,7450.29,60.5937
"2014-03-01 23:05:00 000",403.848,0.501808,211.578,2.18161,7533.70,52.2868
"2014-03-01 23:15:00 000",404.098,0.513450,211.868,3.38185,7501.07,64.8641
"2014-03-01 23:25:00 000",404.046,0.552713,210.508,2.12480,7514.87,47.3493
"2014-03-01 23:35:00 000",404.222,0.574230,209.195,2.79298,7550.78,51.5322
"2014-03-01 23:45:00 000",403.643,0.595973,201.916,3.61077,7505.60,63.7920
"2014-03-01 23:55:00 000",401.665,0.716605,188.861,4.29179,7428.35,53.4963
"2014-03-02 00:05:00 000",400.880,0.601540,182.883,3.80488,7307.92,82.0363
"2014-03-02 00:15:00 000",400.603,0.606241,183.232,5.63886,7297.24,74.9098
"2014-03-02 00:25:00 000",400.725,0.538146,184.598,2.27958,7167.94,92.9786
"2014-03-02 00:35:00 000",401.005,0.530044,186.793,2.28010,7002.78,57.5871
"2014-03-02 00:45:00 000",401.408,0.570333,190.340,2.47887,6790.34,121.780
"2014-03-02 00:55:00 000",402.111,0.621366,190.675,2.13055,6627.57,92.4137
"2014-03-02 01:05:00 000",402.389,0.673365,190.999,2.16151,6634.68,88.2581
"2014-03-02 01:15:00 000",402.043,0.664207,191.117,2.19836,6649.64,57.1707
"2014-03-02 01:25:00 000",402.387,0.682179,191.370,2.32787,6584.47,107.277
"2014-03-02 01:35:00 000",402.921,0.660086,193.411,2.19630,6613.20,89.6193
"2014-03-02 01:45:00 000",403.133,0.602617,195.639,2.32275,6691.67,61.9079
"2014-03-02 01:55:00 000",403.845,0.706019,197.689,2.43536,6647.00,89.4554
"2014-03-02 02:05:00 000",404.510,0.576901,200.710,2.68008,6521.14,65.2062
"2014-03-02 02:15:00 000",403.473,0.671395,197.477,3.37038,6594.37,67.0454
"2014-03-02 02:25:00 000",403.921,0.786480,198.124,2.35158,6364.62,78.2216
"2014-03-02 02:35:00 000",404.756,0.929626,194.302,2.90564,6248.38,63.7742
"2014-03-02 02:45:00 000",405.349,0.625232,194.425,3.15246,6305.64,100.131
"2014-03-02 02:55:00 000",405.356,0.630898,194.869,2.09914,6415.79,60.8499
"2014-03-02 03:05:00 000",405.492,0.623159,194.947,2.18921,6283.01,104.878
"2014-03-02 03:15:00 000",405.632,0.581804,195.866,2.17103,6097.46,84.2943
"2014-03-02 03:25:00 000",405.900,0.635131,195.592,2.11057,6074.99,92.4355
"2014-03-02 03:35:00 000",406.074,0.708655,196.023,2.18696,5990.43,94.8056
"2014-03-02 03:45:00 000",406.079,0.676680,197.917,2.16983,6337.79,96.7371
"2014-03-02 03:55:00 000",406.147,0.520171,196.819,2.13840,6514.46,73.0874
"2014-03-02 04:05:00 000",405.411,0.564339,194.999,2.25606,6579.30,58.6945
"2014-03-02 04:15:00 000",405.156,0.620294,192.457,2.13092,6541.16,84.1623
"2014-03-02 04:25:00 000",405.030,0.561224,192.031,2.02566,6364.20,76.7648
"2014-03-02 04:35:00 000",404.795,0.567264,192.970,2.18867,6315.62,58.2067
"2014-03-02 04:45:00 000",404.689,0.564410,195.547,2.30830,6317.91,51.2258
"2014-03-02 04:55:00 000",404.565,0.520362,199.232,2.37431,6381.52,57.4180
"2014-03-02 05:05:00 000",405.122,0.534532,200.761,2.27736,6353.38,102.675
"2014-03-02 05:15:00 000",405.593,0.662208,202.331,2.66117,6241.28,70.8657
"2014-03-02 05:25:00 000",405.997,0.636234,205.350,2.32333,6395.72,70.6553
"2014-03-02 05:35:00 000",406.247,0.666748,205.954,2.23666,6226.75,99.3093
"2014-03-02 05:45:00 000",406.303,0.592578,206.201,2.37843,6218.80,150.240
"2014-03-02 05:55:00 000",406.268,0.583772,203.978,2.28361,6480.43,61.2971
"2014-03-02 06:05:00 000",406.243,0.521279,203.417,2.14119,6292.81,86.5575
"2014-03-02 06:15:00 000",406.512,0.541022,202.611,2.15570,6053.04,210.621
"2014-03-02 06:25:00 000",406.954,0.535772,201.247,2.04468,5793.08,99.0254
"2014-03-02 06:35:00 000",407.543,0.493317,201.910,2.11185,5707.44,98.4720
"2014-03-02 06:45:00 000",407.764,0.579309,203.188,2.32722,5805.96,61.8273
"2014-03-02 06:55:00 000",408.673,0.671822,205.333,2.08738,5904.14,66.2125
"2014-03-02 07:05:00 000",408.610,0.583161,212.367,4.67704,5937.03,58.8600
"2014-03-02 07:15:00 000",408.645,0.624574,225.155,6.30047,6104.64,103.349
"2014-03-02 07:25:00 000",408.571,0.659755,210.653,4.72587,6334.38,64.6099
"2014-03-02 07:35:00 000",408.417,1.02073,206.189,2.25510,6600.46,133.639
"2014-03-02 07:45:00 000",407.882,1.06507,202.325,2.32972,7021.54,136.800
"2014-03-02 07:55:00 000",405.105,0.901564,203.685,2.31023,7264.26,132.671
"2014-03-02 08:05:00 000",404.779,0.549150,205.638,2.30797,7679.97,149.620
"2014-03-02 08:15:00 000",406.057,0.578495,201.966,2.81807,7881.11,111.331
"2014-03-02 08:25:00 000",404.816,1.02708,198.121,2.29172,7812.19,65.2123
"2014-03-02 08:35:00 000",402.668,0.613976,197.159,2.33490,8004.56,88.0205
"2014-03-02 08:45:00 000",401.897,0.546720,196.258,2.10248,8113.42,97.5005
"2014-03-02 08:55:00 000",401.291,0.647677,193.991,2.68014,8237.59,147.694
"2014-03-02 09:05:00 000",400.109,0.831271,187.847,2.74086,8345.01,108.062
"2014-03-02 09:15:00 000",398.891,0.538223,191.649,4.47417,8523.84,98.9728
"2014-03-02 09:25:00 000",398.997,0.616349,195.352,5.55067,8728.29,89.4002
"2014-03-02 09:35:00 000",398.544,0.557117,181.408,2.20926,8837.30,136.341
"2014-03-02 09:45:00 000",398.009,0.542167,180.689,3.86176,8984.52,158.175
"2014-03-02 09:55:00 000",398.813,0.882986,179.326,2.91816,7636.77,1271.78
"2014-03-02 10:05:00 000",399.109,0.529812,176.083,3.40571,6360.30,118.633
"2014-03-02 10:15:00 000",399.345,0.574003,170.891,2.15983,6054.62,143.725
"2014-03-02 10:25:00 000",398.713,0.638734,164.690,4.71499,5666.92,290.952
"2014-03-02 10:35:00 000",398.988,0.542949,165.881,3.96227,5640.05,251.540
"2014-03-02 10:45:00 000",399.034,0.703920,165.299,4.27272,5703.63,198.093
"2014-03-02 10:55:00 000",398.003,0.598843,162.826,2.47010,5397.58,81.5424
"2014-03-02 11:05:00 000",397.408,0.659828,159.623,2.12102,5285.64,75.3431
"2014-03-02 11:15:00 000",397.874,0.549254,160.835,2.24106,5398.65,79.1588
"2014-03-02 11:25:00 000",402.663,2.98955,162.018,2.29671,5330.96,83.8970
"2014-03-02 11:35:00 000",400.592,2.38029,161.098,2.12961,5214.75,110.980
"2014-03-02 11:45:00 000",399.440,0.993082,162.306,2.12124,5210.27,88.5407
"2014-03-02 11:55:00 000",399.869,1.16525,162.530,2.19154,5201.06,90.6069
"2014-03-02 12:05:00 000",399.975,0.991367,163.172,2.66675,5168.72,58.8018
"2014-03-02 12:15:00 000",398.865,1.13648,161.610,2.81216,5057.79,90.4831
"2014-03-02 12:25:00 000",397.815,0.571615,158.349,2.06217,5052.10,59.6717
"2014-03-02 12:35:00 000",396.859,0.674752,156.101,2.22983,5041.62,100.846
"2014-03-02 12:45:00 000",396.448,0.548903,155.261,2.12894,4936.14,96.6506
"2014-03-02 12:55:00 000",396.422,0.526806,156.438,2.10771,5072.42,91.4860
"2014-03-02 13:05:00 000",395.941,0.566669,156.862,2.02842,5052.91,69.2166
"2014-03-02 13:15:00 000",395.691,0.538133,154.760,2.58693,4822.27,181.181
"2014-03-02 13:25:00 000",395.749,0.535772,153.626,2.07931,4648.56,52.8806
"2014-03-02 13:35:00 000",395.558,0.528517,153.702,1.92327,4718.32,63.2319
"2014-03-02 13:45:00 000",396.228,0.607732,153.354,2.28200,4797.58,56.9663
"2014-03-02 13:55:00 000",396.576,0.594089,153.416,2.21840,4756.12,60.5780
"2014-03-02 14:05:00 000",396.471,0.556128,154.192,2.04857,4815.31,77.2146
"2014-03-02 14:15:00 000",396.618,0.580678,155.006,1.97656,4907.20,81.3229
"2014-03-02 14:25:00 000",396.278,0.577478,154.147,1.92950,4871.50,72.0724
"2014-03-02 14:35:00 000",396.729,0.608622,154.985,2.13882,4848.42,81.9380
"2014-03-02 14:45:00 000",397.643,1.04070,155.053,2.49544,4790.08,75.8277
"2014-03-02 14:55:00 000",396.284,0.583337,155.014,2.13899,4861.33,87.5294
"2014-03-02 15:05:00 000",396.728,0.897643,154.938,2.23976,5009.06,64.6112
"2014-03-02 15:15:00 000",397.259,0.916755,154.156,2.50882,5077.63,87.3097
"2014-03-02 15:25:00 000",395.679,0.701695,152.078,2.14681,4950.20,52.7060
"2014-03-02 15:35:00 000",395.459,0.812881,151.429,2.10688,4979.79,65.0380
"2014-03-02 15:45:00 000",395.543,0.897187,150.146,2.14022,5000.07,65.8951
"2014-03-02 15:55:00 000",393.657,0.559679,146.583,2.21358,5058.79,53.8003
"2014-03-02 16:05:00 000",393.944,0.544610,145.816,2.26228,5038.09,70.4325
"2014-03-02 16:15:00 000",393.772,0.537037,146.916,2.09283,5128.37,55.7400
"2014-03-02 16:25:00 000",393.332,0.491824,146.942,2.22077,5207.25,44.7223
"2014-03-02 16:35:00 000",393.287,0.510278,148.851,2.88222,5264.73,44.7873
"2014-03-02 16:45:00 000",393.363,0.516479,151.014,2.03896,5299.23,42.6551
"2014-03-02 16:55:00 000",393.355,0.503166,152.503,2.58160,5328.86,46.9388
"2014-03-02 17:05:00 000",393.590,0.495063,153.730,2.22681,5329.94,43.6088
"2014-03-02 17:15:00 000",394.059,0.552223,156.679,2.61272,5351.88,52.7418
"2014-03-02 17:25:00 000",394.165,0.513487,160.363,2.20062,5516.72,66.7308
"2014-03-02 17:35:00 000",393.940,0.507761,158.754,2.26343,5596.30,49.0437
"2014-03-02 17:45:00 000",394.029,0.517539,158.428,2.16957,5620.13,53.4394
"2014-03-02 17:55:00 000",394.361,0.501962,159.082,2.08219,5594.23,53.1823
"2014-03-02 18:05:00 000",394.859,0.515391,161.151,2.66499,5607.61,48.3927
"2014-03-02 18:15:00 000",394.986,0.542781,163.039,3.14689,5554.26,57.0205
"2014-03-02 18:25:00 000",395.149,0.524216,163.022,2.20603,5563.72,48.9824
"2014-03-02 18:35:00 000",395.007,0.539826,164.807,2.39291,5595.95,52.6020
"2014-03-02 18:45:00 000",395.349,0.507013,167.339,2.47335,5582.47,48.1684
"2014-03-02 18:55:00 000",395.839,0.580577,172.094,3.10465,5576.03,55.1878
"2014-03-02 19:05:00 000",396.475,0.570169,175.956,2.30363,5543.59,63.4699
"2014-03-02 19:15:00 000",396.549,0.547430,174.695,2.39095,5475.88,49.0461
"2014-03-02 19:25:00 000",396.881,0.670401,177.694,3.25979,5443.44,55.7008
"2014-03-02 19:35:00 000",396.185,0.654349,175.566,3.69978,5433.69,70.0846
"2014-03-02 19:45:00 000",395.696,0.518381,170.034,2.15392,5357.33,52.5200
"2014-03-02 19:55:00 000",395.664,0.517761,170.554,2.92699,5375.06,53.1838
"2014-03-02 20:05:00 000",395.446,0.523495,171.882,2.29912,5321.04,51.8667
"2014-03-02 20:15:00 000",395.429,0.507752,169.759,2.70510,5273.32,54.8644
"2014-03-02 20:25:00 000",395.343,0.548856,171.751,2.45418,5259.08,45.6389
"2014-03-02 20:35:00 000",396.906,1.41877,175.661,2.46082,5110.36,98.7255
"2014-03-02 20:45:00 000",399.427,0.639329,173.720,3.18799,5199.18,57.7893
"2014-03-02 20:55:00 000",398.267,0.673581,172.543,2.45022,5209.73,57.0099
"2014-03-02 21:05:00 000",397.121,0.615537,173.923,2.57542,5253.09,57.6758
"2014-03-02 21:15:00 000",396.612,0.577965,174.678,2.90036,5287.23,65.2897
"2014-03-02 21:25:00 000",396.854,0.559153,182.063,3.18858,5332.85,52.4659
"2014-03-02 21:35:00 000",396.927,0.562081,185.574,2.35155,5328.97,50.0138
"2014-03-02 21:45:00 000",397.333,0.553064,189.544,2.88241,5302.43,53.5525
"2014-03-02 21:55:00 000",397.617,0.546144,195.073,2.47956,5295.51,61.5995
"2014-03-02 22:05:00 000",397.869,0.556229,199.323,2.58387,5295.25,59.1295
"2014-03-02 22:15:00 000",398.034,0.549741,202.964,2.39047,5374.94,57.2017
"2014-03-02 22:25:00 000",398.215,0.563868,206.098,2.31011,5389.83,58.1545
"2014-03-02 22:35:00 000",397.838,0.578409,204.032,2.37014,5429.11,53.1131
"2014-03-02 22:45:00 000",397.595,0.563914,201.502,2.22749,5456.52,60.6171
"2014-03-02 22:55:00 000",397.840,0.532297,201.053,2.30760,5471.78,53.2273
"2014-03-02 23:05:00 000",398.393,0.657960,202.599,2.24169,5439.40,53.1820
"2014-03-02 23:15:00 000",399.482,0.567834,202.997,2.25919,5484.06,58.6177
"2014-03-02 23:25:00 000",399.903,0.584932,202.633,2.37745,5529.57,60.7747
"2014-03-02 23:35:00 000",398.047,0.826214,194.078,3.64391,5616.06,54.4538
"2014-03-02 23:45:00 000",397.650,0.659486,192.477,2.35412,5546.75,87.2969
"2014-03-02 23:55:00 000",399.041,0.624166,192.774,2.23000,5428.91,53.6306
"2014-03-03 00:05:00 000",399.280,0.669766,191.357,2.47477,5413.69,52.5986
"2014-03-03 00:15:00 000",398.391,0.533345,187.007,2.78330,5534.41,62.9470
"2014-03-03 00:25:00 000",399.044,0.608032,184.264,2.37090,5548.36,57.0073
"2014-03-03 00:35:00 000",399.691,0.582159,182.246,2.21510,5558.22,56.7073
"2014-03-03 00:45:00 000",399.847,0.560041,181.902,2.38238,5594.18,52.0898
"2014-03-03 00:55:00 000",400.390,0.749186,181.422,2.26441,5498.53,79.8211
"2014-03-03 01:05:00 000",401.220,0.606104,181.235,2.15532,5440.27,60.4066
"2014-03-03 01:15:00 000",401.229,0.722179,180.971,2.15004,5482.42,70.9408
"2014-03-03 01:25:00 000",400.687,0.595960,180.832,2.34416,5632.80,62.3611
"2014-03-03 01:35:00 000",401.867,0.651922,182.789,2.36873,5588.22,56.9496
"2014-03-03 01:45:00 000",402.572,0.607668,185.261,2.47938,5654.35,70.1083
"2014-03-03 01:55:00 000",399.612,1.20938,185.312,2.22169,5761.08,63.6153
"2014-03-03 02:05:00 000",397.947,0.593650,184.048,2.71882,5752.95,59.3221
"2014-03-03 02:15:00 000",398.255,0.642760,185.224,3.55221,5751.06,112.544
"2014-03-03 02:25:00 000",400.971,1.39607,196.309,4.16456,5503.02,68.3081
"2014-03-03 02:35:00 000",404.214,0.937057,203.048,2.26309,5632.80,69.4477
"2014-03-03 02:45:00 000",405.677,0.590479,205.405,2.34881,5767.94,61.5584
"2014-03-03 02:55:00 000",404.572,0.710834,206.206,2.28454,5882.58,78.4225
"2014-03-03 03:05:00 000",402.808,0.722408,204.385,2.27688,5960.86,61.3848
"2014-03-03 03:15:00 000",402.730,0.617954,207.642,3.48451,5920.04,57.8313
"2014-03-03 03:25:00 000",402.836,0.586551,207.394,2.42506,5980.42,56.7271
"2014-03-03 03:35:00 000",403.925,0.606150,209.231,2.34289,5945.65,63.5546
"2014-03-03 03:45:00 000",405.004,0.705863,207.531,2.37741,5842.13,65.8336
"2014-03-03 03:55:00 000",404.283,0.644001,209.469,2.39085,5744.53,92.8072